Regional Weather Roundup
Issued by NWS Sterling, VA

Home | Current Version | Previous Version | Graphics & Text | Print | Product List | Glossary On
Versions: 1 2 3 4 5 6 7 8 9 10 11 12 13 14 15 16 17 18 19 20 21 22 23 24 25 26 27 28 29 30 31 32 33 34 35 36 37 38 39 40 41 42 43 44 45 46 47 48 49 50
000
ASUS41 KLWX 300310
RWRLWX

REGIONAL WEATHER ROUNDUP
NATIONAL WEATHER SERVICE BALTIMORE MD/WASHINGTON DC
1100 PM EDT TUE JUL 29 2014

Note: "FAIR" indicates few or no clouds below 12,000 feet
with no significant weather and/or obstructions to visibility.
 TC=TEMPERATURE CELSIUS

 * =Non NWS site. Station does not report precipitation (e.g. rain,
    snow, etc.), thunder, or fog.

DCZ001-MDZ009-015-VAZ040>042-051-053>054-300400-
WASHINGTON METRO
  /KDAA//-FT BELVOIR

CITY           SKY/WX    TMP DP  RH WIND       PRES   REMARKS
WASHINGTON NAT PTCLDY    68  48  48 W6        30.03R
DULLES         CLEAR     56  48  74 SW3       30.03R
ANDREWS AFB    CLEAR     58  51  78 CALM      30.02R
QUANTICO       CLEAR     62  56  80 NW9       30.04R
COLLEGE PARK*  CLEAR     61  54  77 CALM      30.02S
LEESBURG*      CLEAR     59  54  82 CALM      30.04S
MANASSAS*      CLEAR     57  55  94 CALM      30.04R
GAITHERSBURG*  CLEAR     55  52  88 CALM      30.07R

$$

MDZ006>007-011-014-300400-
BALTIMORE METRO

CITY           SKY/WX    TMP DP  RH WIND       PRES   REMARKS
BWI AIRPORT    PTCLDY    60  52  74 W6        30.01R
MD SCIENCE CTR   N/A     69  52  54 MISG      30.01R
MARTIN STATE   CLEAR     63  59  88 NW3       30.02R
ANNAPOLIS      CLEAR     66  52  60 W6        30.01R
FORT MEADE*    CLEAR     55  54  94 CALM      30.04R

$$

MDZ012-015-019>023-300400-
MARYLAND EASTERN SHORE

CITY           SKY/WX    TMP DP  RH WIND       PRES   REMARKS
OCEAN CITY     CLEAR     56  54  93 CALM      30.00S
SALISBURY      NOT AVBL
BAY BRIDGE AP*   N/A     68  52  56 N6        30.00S
CAMBRIDGE*     CLEAR     61  54  77 CALM      30.00S
EASTON*        CLEAR     66  58  74 CALM      30.04

$$

MDZ017>025-300400-
SOUTHERN MARYLAND

CITY           SKY/WX    TMP DP  RH WIND       PRES   REMARKS
PATUXENT RIVER CLEAR     59  51  75 NW7       30.01R
ST INIGOES     CLEAR     59  53  80 CALM      30.01R
LEONARDTOWN*   PTCLDY    59  50  72 W3        30.03S

$$

MDZ003>005-300400-
NORTH CENTRAL MARYLAND

CITY           SKY/WX    TMP DP  RH WIND       PRES   REMARKS
FREDERICK*     CLEAR     55  55 100 CALM      30.05S
HAGERSTOWN APT CLEAR     63  49  60 CALM      30.03S
WESTMINSTER*   CLEAR     63  54  72 CALM      30.03R

$$

MDZ501>502-300400-
WESTERN MARYLAND

CITY           SKY/WX    TMP DP  RH WIND       PRES   REMARKS
OAKLAND*       CLEAR     52  50  93 W3        30.10S
CUMBERLAND*    MOCLDY    57  52  82 CALM      30.09R

$$

VAZ025>031-300400-
SHENANDOAH VALLEY

CITY           SKY/WX    TMP DP  RH WIND       PRES   REMARKS
WINCHESTER*    CLEAR     55  50  82 CALM      30.05R
STAUNTON*      PTCLDY    60  51  72 CALM      30.08S

$$

WVZ021-048>050-054>055-300400-
EASTERN WEST VIRGINIA PANHANDLE

CITY           SKY/WX    TMP DP  RH WIND       PRES   REMARKS
MARTINSBURG    CLEAR     56  49  77 CALM      30.04R
PETERSBURG*    CLEAR     53  49  85 CALM      30.09R

$$

VAZ036>039-050-300400-
CENTRAL FOOTHILLS

CITY           SKY/WX    TMP DP  RH WIND       PRES   REMARKS
CHARLOTTESVILL CLOUDY    65  52  62 N3        30.04R
ORANGE*        PTCLDY    63  52  67 CALM      30.06S

$$

VAZ055>057-300400-
NORTH AND CENTRAL PIEDMONT

CITY           SKY/WX    TMP DP  RH WIND       PRES   REMARKS
FREDERICKSBRG* PTCLDY    63  55  76 CALM      30.03R
STAFFORD*      CLEAR     56  56 100 CALM      30.07S

$$

NCZ024-NYZ072-PAZ021-071-VAZ022-071-300400-
OTHER REGIONAL OBSERVATIONS

CITY           SKY/WX    TMP DP  RH WIND       PRES   REMARKS
NEW YORK CITY  CLEAR     69  51  52 NW5       30.00R
PHILADELPHIA   CLOUDY    71  53  52 NW8       29.99R
PITTSBURGH     CLEAR     59  52  77 SW3       30.04S
ROANOKE        PTCLDY    64  51  62 NW8       30.08R
RICHMOND       PTCLDY    69  53  56 NE6       30.03R
RALEIGH        PTCLDY    66  60  81 CALM      30.00R

$$

ANZ530>537-300400-
MARINE OBSERVATIONS

STATION/POSITION TIME  TEMP    WIND        PRES
                       AIR SEA DIR/SP/G
                 (UTC) (F)     (DEG/KT/KT) (MB)
THOMAS PT LIGHT  0300   68 78  300/  8/ 10 1016.6R
BALT KEY BRIDGE  0300   70     340/  8/ 10 1015.8R
COVE POINT       0300   69     320/  6/  7 1016.1S
LEWISETTA        0300   71 77  280/  5/  6 1016.2S
SOLOMONS ISLAND  0300      80                N/A
PINEY POINT      0300           10/  6/  7   N/A

$$




USA.gov is the U.S. government's official web portal to all federal, state and local government web resources and services.